Volver al catálogo

CZ-6A DEB

ActivoPO
NORAD 61127·DEBRIS·🇨🇳 China

Lanzado Aug 6, 2024 desde Taiyuan Satellite Launch Center

Loading…

Próximos Pases (próximas 24 horas)

TLE

ActualizadoSource: Space-Track

Época: Sep 14, 2026, 06:52 UTC

1 61127U 24140PV  26257.28664795  .00001541  00000-0  34956-3 0  9998
2 61127  89.0435 264.5882 0086433 327.8884  31.7076 14.53337989109317

Sigue CZ-6A DEB en tiempo real con AllMySat

Download on the App Store